(190157) = 2005 TN106

Discovered at Kitt Peak on 2005-10-10 by Spacewatch.

Orbit

Orbit type: Main Belt

Note: WebGL enabled browser required.

epoch2023-09-13.0
epoch JD2460200.5
perihelion date2022-07-29.48826
perihelion JD2459789.98826
argument of perihelion (°)25.26659
ascending node (°)272.81021
inclination (°)2.85164
eccentricity0.0376374
perihelion distance (AU)2.2303934
Tisserand w.r.t. Jupiter3.6
ΔV w.r.t. Earth (km/sec)9.3
semimajor axis (AU)2.3176227
mean anomaly (°)114.67409
mean daily motion (°/day)0.27934430
aphelion distance (AU)2.405
period (years)3.53
P-vector [x]0.47012679
P-vector [y]-0.81798096
P-vector [z]-0.33149352
Q-vector [x]0.88119901
Q-vector [y]0.41387072
Q-vector [z]0.22847174
absolute magnitude17.05
phase slope0.15
uncertainty0
referenceMPEC 2024-A12
observations used402
oppositions16
arc length (days)8724
first opposition used2000
last opposition used2024
residual rms (arc-secs)0.75
perturbers coarse indicatorM-v
perturbers precise indicator003Ek
first observation date used2000-02-12.0
last observation date used2024-01-01.0
computer nameMPCLINUX
JD of orbit computation2456937.494797
perihelion JD uncertainty (days)3.3028E-04
argument of perihelion uncertainty (°)1.6133E-04
ascending node uncertainty (°)1.3235E-04
inclination uncertainty (°)3.6434E-06
eccentricity uncertainty 4.3540E-08
perihelion distance uncertainty (AU)9.6945E-08
Minimum Orbit Intersection Distances (in AU)
for orbit epoch: 2460200.5, reference: E2024-A12
Mercury1.77703
Venus1.50416
Earth1.21423
Mars0.71662
Jupiter2.64853
Saturn6.65746
Uranus16.0727
Neptune27.5182

Observations

418 total observations over interval: 2000 02 12.409190 – 2024 01 01.282480
These data are available for download (format description).

Date (UT) J2000 RA J2000 Dec Magn Location Ref
2000 02 12.409190 11 37 05.137 -02 10 40.89 20.64 V 645 – Apache Point-Sloan Digital Sky Survey MPS 168834
2000 02 12.412662 11 37 05.008 -02 10 40.47 21.45   645 – Apache Point-Sloan Digital Sky Survey MPS 168834
2000 05 05.236430 10 49 24.112 +03 14 49.42 21.24 V 645 – Apache Point-Sloan Digital Sky Survey MPS 168834
2000 05 05.239902 10 49 24.173 +03 14 49.41 21.78   645 – Apache Point-Sloan Digital Sky Survey MPS 168834
2001 08 16.26999 21 25 07.02 -11 04 35.5 19.8   704 – Lincoln Laboratory ETS, New Mexico MPS 168834
2001 08 16.28227 21 25 06.30 -11 04 35.9 19.8   704 – Lincoln Laboratory ETS, New Mexico MPS 168834
2001 08 16.29453 21 25 05.55 -11 04 39.6 19.4   704 – Lincoln Laboratory ETS, New Mexico MPS 168834
2001 08 16.30687 21 25 04.73 -11 04 41.6 19.7   704 – Lincoln Laboratory ETS, New Mexico MPS 168834
2001 08 16.31911 21 25 03.93 -11 04 43.5 20.1   704 – Lincoln Laboratory ETS, New Mexico MPS 168835
2004 05 09.28274 15 45 34.81 -23 05 23.5 20.7   644 – Palomar Mountain/NEAT MPS 168835
2004 05 09.30991 15 45 33.12 -23 05 17.6 19.8   644 – Palomar Mountain/NEAT MPS 168835
2004 05 09.35918 15 45 30.13 -23 05 05.7 20.2   644 – Palomar Mountain/NEAT MPS 168835
2004 06 17.18578 15 12 03.67 -20 06 20.7 20.5 V 691 – Steward Observatory, Kitt Peak-Spacewatch MPS 168835
2004 06 17.21320 15 12 02.89 -20 06 14.7 20.4 V 691 – Steward Observatory, Kitt Peak-Spacewatch MPS 168835
2004 06 17.24012 15 12 02.09 -20 06 08.5 20.2 V 691 – Steward Observatory, Kitt Peak-Spacewatch MPS 168835
2005 10 10.30362 02 07 20.54 +17 36 22.0 19.5 R 699 – Lowell Observatory-LONEOS MPS 168835
2005 10 10.33102 02 07 19.25 +17 36 13.7   699 – Lowell Observatory-LONEOS MPS 168835
2005 10 10.35844 02 07 17.84 +17 36 08.0   699 – Lowell Observatory-LONEOS MPS 168835
2005 10 10.37429 02 07 16.82 +17 36 03.9 20.7 V 691 – Steward Observatory, Kitt Peak-Spacewatch MPS 147711
2005 10 10.38586 02 07 16.17 +17 36 00.0   699 – Lowell Observatory-LONEOS MPS 168835
2005 10 10.39161 02 07 15.87 +17 35 59.2 20.1 V 691 – Steward Observatory, Kitt Peak-Spacewatch MPS 147711
2005 10 10.40894 02 07 14.91 +17 35 54.5 20.1 V 691 – Steward Observatory, Kitt Peak-Spacewatch MPS 147711
2005 10 13.06618 02 04 49.74 +17 23 23.6 19.7 R 152 – Moletai Astronomical Observatory MPS 147711
2005 10 13.06785 02 04 49.67 +17 23 23.2 19.7 R 152 – Moletai Astronomical Observatory MPS 147711
2005 10 13.07708 02 04 49.12 +17 23 20.9 19.7 R 152 – Moletai Astronomical Observatory MPS 147711
2005 10 13.08373 02 04 48.68 +17 23 18.9 19.6 R 152 – Moletai Astronomical Observatory MPS 147711
2005 10 26.21121 01 51 57.12 +16 08 44.3 19.2 R 699 – Lowell Observatory-LONEOS MPS 153743
2005 10 26.23313 01 51 55.71 +16 08 35.5   699 – Lowell Observatory-LONEOS MPS 153743
2005 10 26.25505 01 51 54.53 +16 08 28.5   699 – Lowell Observatory-LONEOS MPS 153743
2005 10 26.27696 01 51 53.16 +16 08 20.6   699 – Lowell Observatory-LONEOS MPS 153743
2005 10 28.26931 01 49 55.23 +15 55 44.3 19.6 V 703 – Catalina Sky Survey MPS 153743
2005 10 28.27464 01 49 54.84 +15 55 42.2 19.5 V 703 – Catalina Sky Survey MPS 153743
2005 10 28.28000 01 49 54.55 +15 55 40.9 19.2 V 703 – Catalina Sky Survey MPS 153743
2005 10 28.28536 01 49 54.22 +15 55 38.2 19.7 V 703 – Catalina Sky Survey MPS 153743
2005 11 06.26996 01 41 33.73 +14 57 58.4 19.7   704 – Lincoln Laboratory ETS, New Mexico MPS 153743
2005 11 06.28246 01 41 33.02 +14 57 54.8 20.0   704 – Lincoln Laboratory ETS, New Mexico MPS 153743
2005 11 06.29490 01 41 32.43 +14 57 49.5 20.1   704 – Lincoln Laboratory ETS, New Mexico MPS 153743
2007 03 10.25655 10 42 43.89 +03 10 37.7 20.0 R 644 – Palomar Mountain/NEAT MPS 203092
2007 03 10.27684 10 42 42.71 +03 10 45.0 19.9 R 644 – Palomar Mountain/NEAT MPS 203092
2007 03 10.29717 10 42 41.53 +03 10 51.8 20.1 R 644 – Palomar Mountain/NEAT MPS 203092
2007 03 21.18778 10 33 06.22 +04 10 41.1 19.7 V 703 – Catalina Sky Survey MPS 204612
2007 03 21.19576 10 33 05.94 +04 10 44.0 19.6 V 703 – Catalina Sky Survey MPS 204612
2007 03 21.20373 10 33 05.50 +04 10 46.5 20.4 V 703 – Catalina Sky Survey MPS 204612
2007 03 21.21259 10 33 05.14 +04 10 48.6 19.7 V 703 – Catalina Sky Survey MPS 204612
2008 07 02.36762 21 20 17.53 -13 07 11.2   691 – Steward Observatory, Kitt Peak-Spacewatch MPS 252039
2008 07 02.38524 21 20 17.05 -13 07 11.1   691 – Steward Observatory, Kitt Peak-Spacewatch MPS 252039
2008 07 02.40288 21 20 16.57 -13 07 10.6   691 – Steward Observatory, Kitt Peak-Spacewatch MPS 252039
2008 07 29.04749 21 00 32.78 -13 43 41.7 19.3 V J75 – OAM Observatory, La Sagra MPS 254017
2008 07 29.06133 21 00 31.86 -13 43 44.1 19.1 V J75 – OAM Observatory, La Sagra MPS 254017
2008 07 29.07513 21 00 31.06 -13 43 46.0 19.0 V J75 – OAM Observatory, La Sagra MPS 254017
2008 07 30.00933 20 59 36.09 -13 46 14.8 19.2 V J75 – OAM Observatory, La Sagra MPS 254017
2008 07 30.02311 20 59 35.23 -13 46 16.8 18.8 V J75 – OAM Observatory, La Sagra MPS 254017
2008 07 30.03693 20 59 34.38 -13 46 19.1 19.2 V J75 – OAM Observatory, La Sagra MPS 254017
2008 07 30.27690 20 59 20.29 -13 46 57.9 20.2 V 703 – Catalina Sky Survey MPS 252938
2008 07 30.28446 20 59 19.82 -13 46 58.4 19.5 V 703 – Catalina Sky Survey MPS 252938
2008 07 30.29196 20 59 19.46 -13 47 00.2 19.3 V 703 – Catalina Sky Survey MPS 252938
2008 07 30.29947 20 59 18.88 -13 47 01.7 19.3 V 703 – Catalina Sky Survey MPS 252938
2008 08 04.21851 20 54 24.54 -14 00 46.3 19.2   704 – Lincoln Laboratory ETS, New Mexico MPS 254017
2008 08 04.23031 20 54 23.92 -14 00 47.5 19.8   704 – Lincoln Laboratory ETS, New Mexico MPS 254017
2008 08 04.24189 20 54 23.11 -14 00 51.0 19.8   704 – Lincoln Laboratory ETS, New Mexico MPS 254017
2008 08 04.25343 20 54 22.46 -14 00 53.7 20.3   704 – Lincoln Laboratory ETS, New Mexico MPS 254017
2008 08 04.26506 20 54 21.70 -14 00 53.3 19.6   704 – Lincoln Laboratory ETS, New Mexico MPS 254017
2011 05 08.25956 15 04 47.58 -21 05 43.3 19.5 R H15 – ISON-NM Observatory, Mayhill MPS 382931
2011 05 08.27359 15 04 46.65 -21 05 39.8 19.5 R H15 – ISON-NM Observatory, Mayhill MPS 382931
2011 05 08.28730 15 04 45.74 -21 05 36.3 19.4 R H15 – ISON-NM Observatory, Mayhill MPS 382931
2011 05 08.29593 15 04 45.26 -21 05 33.5 19.8 V 703 – Catalina Sky Survey MPS 382931
2011 05 08.30001 15 04 44.97 -21 05 31.8 19.5 V 703 – Catalina Sky Survey MPS 382931
2011 05 08.30090 15 04 44.84 -21 05 33.0 19.5 R H15 – ISON-NM Observatory, Mayhill MPS 382931
2011 05 08.30406 15 04 44.76 -21 05 30.8 19.8 V 703 – Catalina Sky Survey MPS 382931
2011 05 08.30817 15 04 44.36 -21 05 31.4 19.2 V 703 – Catalina Sky Survey MPS 382931
2012 09 16.33410 01 47 47.65 +15 56 53.2 20.3 V 691 – Steward Observatory, Kitt Peak-Spacewatch MPS 433016
2012 09 16.35204 01 47 47.08 +15 56 51.6 20.6 V 691 – Steward Observatory, Kitt Peak-Spacewatch MPS 433016
2012 09 16.36997 01 47 46.52 +15 56 50.1 20.5 V 691 – Steward Observatory, Kitt Peak-Spacewatch MPS 433016
2012 10 08.32120 01 31 12.86 +14 36 40.7 20.0 V 703 – Catalina Sky Survey MPS 434747
2012 10 08.32627 01 31 12.61 +14 36 37.0 19.3 V 703 – Catalina Sky Survey MPS 434747
2012 10 08.33130 01 31 12.36 +14 36 35.0 19.3 V 703 – Catalina Sky Survey MPS 434747
2012 10 08.33631 01 31 12.10 +14 36 33.5 19.1 V 703 – Catalina Sky Survey MPS 434747
2012 10 11.18221 01 28 28.89 +14 20 26.6 19.9 V 691 – Steward Observatory, Kitt Peak-Spacewatch MPS 437334
2012 10 11.19989 01 28 27.84 +14 20 20.6 19.8 V 691 – Steward Observatory, Kitt Peak-Spacewatch MPS 437334
2012 10 11.21757 01 28 26.71 +14 20 15.4 19.3 V 691 – Steward Observatory, Kitt Peak-Spacewatch MPS 437334
2012 10 11.346466 01 28 19.329 +14 19 30.35 19.8 w F51 – Pan-STARRS 1, Haleakala MPS 437335
2012 10 11.376470 01 28 17.517 +14 19 19.93 19.7 w F51 – Pan-STARRS 1, Haleakala MPS 437335
2012 10 11.391499 01 28 16.604 +14 19 14.71 19.6 w F51 – Pan-STARRS 1, Haleakala MPS 437335
2012 10 15.16702 01 24 36.15 +13 56 21.4 19.8 V 691 – Steward Observatory, Kitt Peak-Spacewatch MPS 437335
2012 10 15.17966 01 24 35.39 +13 56 16.8 20.0 V 691 – Steward Observatory, Kitt Peak-Spacewatch MPS 437335
2012 10 15.19576 01 24 34.42 +13 56 11.1 19.6 V 691 – Steward Observatory, Kitt Peak-Spacewatch MPS 437335
